Location: Courcelles
(49.2596°N, 1.7419°E)
Time: 23:28:10
(UTC+00:00)

Cosmos 1943 Rocket - Pass Details

Date: 17 November 2025
Orbit: 812 x 841 km, 71.0° (Epoch: 05 December)

Event Time Altitude Azimuth Distance (km) Brightness Sun altitude
Rises 17:41:12 0° 201° (SSW) 3,373 5.8 -14.9°
Reaches altitude 10° 17:43:38 10° 200° (SSW) 2,440 5.0 -15.3°
Maximum altitude 17:49:13 78° 115° (ESE) 855 2.1 -16.2°
Enters shadow 17:54:06 14° 31° (NNE) 2,174 4.0 -17.0°
